Location: Newark
(58.9986°N, 38.5006°E)
Time: 07:16:38
(UTC+00:00)

Explorer 7 - Pass Details

Date: 27 April 2021
Orbit: 484 x 677 km, 50.3° (Epoch: 11 May)

Event Time Altitude Azimuth Distance (km) Brightness Sun altitude
Rises 19:29:48 0° 264° (W) 2,695 10.7 -13.3°
Reaches altitude 10° 19:32:38 10° 243° (WSW) 1,841 9.5 -13.5°
Maximum altitude 19:35:17 16° 204° (SSW) 1,507 8.7 -13.6°
Enters shadow 19:36:01 16° 191° (SSW) 1,547 8.6 -13.7°
